| time (UTC) | temp F | wind direction | speed MPH | gust MPH | rain 1hr in | rain 24hr in | rain mn in | humidity % | barometer mb |
| 20260506073056 | 70 | 198 | 2.0 | 8.0 | 0.00 | 0.01 | 0.00 | 72 | 1010.3 |
| 20260506072557 | 70 | 206 | 2.0 | 8.0 | 0.00 | 0.01 | 0.00 | 72 | 1010.4 |
| 20260506072057 | 70 | 188 | 3.0 | 8.0 | 0.00 | 0.01 | 0.00 | 72 | 1010.3 |
| 20260506071556 | 70 | 217 | 3.0 | 6.0 | 0.00 | 0.01 | 0.00 | 72 | 1010.2 |
| 20260506071058 | 70 | 192 | 2.0 | 5.0 | 0.00 | 0.01 | 0.00 | 72 | 1010.1 |
| 20260506070556 | 70 | 271 | 2.0 | 6.0 | 0.00 | 0.01 | 0.00 | 72 | 1010.1 |
| 20260506070119 | 70 | 215 | 2.0 | 6.0 | 0.00 | 0.01 | 0.00 | 72 | 1010.0 |
| 20260506062057 | 71 | 181 | 2.0 | 5.0 | 0.00 | 0.01 | 0.00 | 71 | 1010.3 |
| 20260506061556 | 70 | 216 | 1.0 | 6.0 | 0.00 | 0.01 | 0.00 | 71 | 1010.7 |
| 20260506061057 | 71 | 185 | 2.0 | 6.0 | 0.00 | 0.01 | 0.00 | 71 | 1010.7 |
| 20260506060556 | 70 | 194 | 1.0 | 5.0 | 0.00 | 0.01 | 0.00 | 71 | 1010.7 |
| 20260506051059 | 69 | 0 | 0.0 | 1.0 | 0.00 | 0.01 | 0.00 | 71 | 1011.2 |
| 20260506050556 | 70 | 0 | 0.0 | 1.0 | 0.00 | 0.01 | 0.00 | 71 | 1011.2 |
| 20260506050109 | 70 | 0 | 0.0 | 1.0 | 0.00 | 0.01 | 0.00 | 70 | 1011.5 |
| 20260506045059 | 70 | 0 | 0.0 | 2.0 | 0.00 | 0.01 | 0.01 | 70 | 1011.5 |
| 20260506044558 | 70 | 177 | 0.0 | 2.0 | 0.00 | 0.01 | 0.01 | 70 | 1011.4 |
| 20260506044056 | 70 | 210 | 0.0 | 2.0 | 0.00 | 0.01 | 0.01 | 70 | 1011.3 |
| 20260506043557 | 70 | 193 | 0.0 | 2.0 | 0.00 | 0.01 | 0.01 | 70 | 1011.3 |
| 20260506043058 | 70 | 0 | 0.0 | 2.0 | 0.00 | 0.01 | 0.01 | 69 | 1011.4 |
| 20260506042557 | 70 | 184 | 0.0 | 2.0 | 0.00 | 0.01 | 0.01 | 69 | 1011.5 |
| 20260506042057 | 70 | 196 | 0.0 | 2.0 | 0.00 | 0.01 | 0.01 | 69 | 1011.5 |
| 20260506041603 | 70 | 196 | 1.0 | 3.0 | 0.00 | 0.01 | 0.01 | 69 | 1011.5 |
| 20260506041056 | 70 | 0 | 1.0 | 4.0 | 0.00 | 0.01 | 0.01 | 69 | 1011.5 |
| 20260506040559 | 70 | 178 | 1.0 | 4.0 | 0.00 | 0.01 | 0.01 | 69 | 1011.5 |
| 20260506040101 | 71 | 198 | 1.0 | 4.0 | 0.00 | 0.01 | 0.01 | 69 | 1011.5 |
| 20260506035556 | 71 | 172 | 1.0 | 4.0 | 0.00 | 0.01 | 0.01 | 68 | 1011.5 |
| 20260506035056 | 71 | 170 | 1.0 | 3.0 | 0.00 | 0.01 | 0.01 | 68 | 1011.5 |
| 20260506034600 | 71 | 177 | 1.0 | 3.0 | 0.00 | 0.01 | 0.01 | 68 | 1011.4 |
| 20260506034056 | 71 | 203 | 1.0 | 3.0 | 0.00 | 0.01 | 0.01 | 68 | 1011.5 |
| 20260506033556 | 71 | 218 | 1.0 | 3.0 | 0.00 | 0.01 | 0.01 | 68 | 1011.5 |
| 20260506033056 | 71 | 207 | 1.0 | 3.0 | 0.00 | 0.01 | 0.01 | 68 | 1011.5 |
| 20260506032559 | 71 | 187 | 1.0 | 3.0 | 0.00 | 0.01 | 0.01 | 68 | 1011.4 |
| 20260506032100 | 71 | 188 | 1.0 | 4.0 | 0.00 | 0.01 | 0.01 | 68 | 1011.5 |
| 20260506031555 | 71 | 202 | 1.0 | 6.0 | 0.00 | 0.01 | 0.01 | 68 | 1011.5 |
| 20260506031056 | 71 | 190 | 1.0 | 6.0 | 0.00 | 0.01 | 0.01 | 68 | 1011.4 |
| 20260506030556 | 71 | 192 | 1.0 | 4.0 | 0.00 | 0.01 | 0.01 | 68 | 1011.5 |
| 20260506030059 | 71 | 199 | 1.0 | 4.0 | 0.00 | 0.01 | 0.01 | 68 | 1011.5 |
| 20260506025558 | 71 | 190 | 1.0 | 4.0 | 0.00 | 0.01 | 0.01 | 68 | 1011.6 |
| 20260506025056 | 71 | 183 | 1.0 | 3.0 | 0.00 | 0.01 | 0.01 | 68 | 1011.6 |
| 20260506024601 | 71 | 184 | 1.0 | 3.0 | 0.00 | 0.01 | 0.01 | 68 | 1011.4 |
| 20260506024056 | 70 | 185 | 0.0 | 5.0 | 0.00 | 0.01 | 0.01 | 69 | 1011.3 |
| 20260506023556 | 70 | 0 | 0.0 | 5.0 | 0.00 | 0.01 | 0.01 | 69 | 1011.3 |
| 20260506023054 | 70 | 0 | 1.0 | 4.0 | 0.00 | 0.01 | 0.01 | 69 | 1011.3 |
| 20260506022557 | 70 | 219 | 1.0 | 5.0 | 0.00 | 0.01 | 0.01 | 69 | 1011.3 |
| 20260506022056 | 70 | 201 | 1.0 | 5.0 | 0.00 | 0.01 | 0.01 | 70 | 1011.3 |
| 20260506021554 | 70 | 190 | 1.0 | 3.0 | 0.00 | 0.01 | 0.01 | 70 | 1011.2 |
| 20260506021056 | 70 | 216 | 1.0 | 5.0 | 0.00 | 0.01 | 0.01 | 70 | 1011.2 |
| 20260506020556 | 70 | 209 | 1.0 | 5.0 | 0.00 | 0.01 | 0.01 | 70 | 1011.1 |
| 20260506020108 | 70 | 199 | 1.0 | 5.0 | 0.00 | 0.01 | 0.01 | 70 | 1010.6 |
| 20260506015557 | 70 | 0 | 0.0 | 4.0 | 0.00 | 0.01 | 0.01 | 70 | 1010.7 |
| 20260506015057 | 70 | 197 | 0.0 | 5.0 | 0.00 | 0.01 | 0.01 | 69 | 1011.0 |
| 20260506014611 | 70 | 0 | 1.0 | 5.0 | 0.00 | 0.01 | 0.01 | 69 | 1011.1 |
| 20260506014056 | 70 | 215 | 1.0 | 3.0 | 0.00 | 0.01 | 0.01 | 69 | 1011.3 |
| 20260506013555 | 70 | 171 | 1.0 | 4.0 | 0.00 | 0.01 | 0.01 | 69 | 1011.4 |
| 20260506013057 | 70 | 171 | 0.0 | 4.0 | 0.00 | 0.01 | 0.01 | 69 | 1011.3 |
| 20260506012556 | 70 | 0 | 0.0 | 3.0 | 0.00 | 0.01 | 0.01 | 69 | 1011.2 |
| 20260506012056 | 70 | 0 | 0.0 | 3.0 | 0.00 | 0.01 | 0.01 | 69 | 1011.3 |
| 20260506011619 | 70 | 173 | 1.0 | 3.0 | 0.00 | 0.01 | 0.01 | 68 | 1011.1 |
| 20260506011056 | 70 | 179 | 1.0 | 3.0 | 0.00 | 0.01 | 0.01 | 68 | 1011.1 |
| 20260506010601 | 70 | 185 | 1.0 | 3.0 | 0.00 | 0.01 | 0.01 | 68 | 1011.2 |
| 20260506010056 | 70 | 0 | 1.0 | 3.0 | 0.00 | 0.01 | 0.01 | 68 | 1011.1 |
| 20260506005556 | 70 | 195 | 0.0 | 3.0 | 0.00 | 0.01 | 0.01 | 68 | 1011.1 |
| 20260506005055 | 70 | 219 | 1.0 | 3.0 | 0.00 | 0.01 | 0.01 | 67 | 1011.0 |
| 20260506004604 | 70 | 192 | 1.0 | 3.0 | 0.00 | 0.01 | 0.01 | 67 | 1011.1 |
| 20260506004056 | 70 | 215 | 1.0 | 3.0 | 0.00 | 0.01 | 0.01 | 67 | 1011.2 |
| 20260506003556 | 70 | 180 | 0.0 | 2.0 | 0.00 | 0.01 | 0.01 | 67 | 1011.2 |
| 20260506003058 | 70 | 193 | 0.0 | 4.0 | 0.00 | 0.01 | 0.01 | 67 | 1011.2 |
| 20260506002556 | 71 | 195 | 1.0 | 4.0 | 0.00 | 0.01 | 0.01 | 67 | 1011.0 |
| 20260506002055 | 71 | 179 | 1.0 | 4.0 | 0.00 | 0.01 | 0.01 | 67 | 1011.1 |
| 20260506001602 | 71 | 194 | 1.0 | 5.0 | 0.00 | 0.01 | 0.01 | 66 | 1011.1 |
| 20260506001057 | 71 | 180 | 1.0 | 5.0 | 0.00 | 0.01 | 0.01 | 66 | 1011.0 |
| 20260506000556 | 71 | 190 | 1.0 | 4.0 | 0.00 | 0.01 | 0.01 | 66 | 1011.1 |
| 20260506000120 | 71 | 184 | 1.0 | 4.0 | 0.00 | 0.01 | 0.01 | 66 | 1011.0 |
| 20260505235600 | 71 | 186 | 1.0 | 3.0 | 0.00 | 0.01 | 0.01 | 65 | 1011.1 |
| 20260505235056 | 71 | 196 | 1.0 | 3.0 | 0.00 | 0.01 | 0.01 | 66 | 1011.0 |
| 20260505234557 | 71 | 0 | 1.0 | 3.0 | 0.00 | 0.01 | 0.01 | 65 | 1011.1 |
| 20260505234056 | 71 | 194 | 1.0 | 3.0 | 0.00 | 0.01 | 0.01 | 65 | 1011.2 |
| 20260505233556 | 71 | 190 | 1.0 | 4.0 | 0.00 | 0.01 | 0.01 | 65 | 1011.3 |
| 20260505233100 | 71 | 194 | 1.0 | 4.0 | 0.00 | 0.01 | 0.01 | 65 | 1011.4 |
| 20260505232557 | 71 | 179 | 0.0 | 4.0 | 0.00 | 0.01 | 0.01 | 66 | 1011.5 |
| 20260505232057 | 71 | 179 | 0.0 | 5.0 | 0.00 | 0.01 | 0.01 | 65 | 1011.5 |
| 20260505231612 | 72 | 184 | 2.0 | 5.0 | 0.00 | 0.01 | 0.01 | 63 | 1011.6 |
| 20260505231056 | 71 | 184 | 1.0 | 4.0 | 0.00 | 0.01 | 0.01 | 65 | 1011.8 |
| 20260505230556 | 72 | 184 | 1.0 | 4.0 | 0.00 | 0.01 | 0.01 | 64 | 1011.9 |
| 20260505230107 | 72 | 187 | 1.0 | 4.0 | 0.00 | 0.01 | 0.01 | 63 | 1011.8 |
| 20260505225601 | 72 | 207 | 1.0 | 6.0 | 0.00 | 0.01 | 0.01 | 64 | 1011.8 |
| 20260505225057 | 72 | 199 | 1.0 | 6.0 | 0.00 | 0.01 | 0.01 | 63 | 1011.8 |
| 20260505224601 | 72 | 178 | 1.0 | 4.0 | 0.00 | 0.01 | 0.01 | 63 | 1011.8 |
| 20260505224059 | 72 | 189 | 1.0 | 7.0 | 0.00 | 0.01 | 0.01 | 63 | 1011.8 |
| 20260505223600 | 72 | 180 | 1.0 | 7.0 | 0.00 | 0.01 | 0.01 | 62 | 1011.9 |
| 20260505223056 | 72 | 175 | 2.0 | 7.0 | 0.00 | 0.01 | 0.01 | 62 | 1012.0 |
| 20260505222558 | 72 | 200 | 2.0 | 4.0 | 0.00 | 0.01 | 0.01 | 62 | 1012.2 |
| 20260505222057 | 72 | 188 | 1.0 | 4.0 | 0.00 | 0.01 | 0.01 | 63 | 1012.2 |
| 20260505221601 | 72 | 182 | 2.0 | 6.0 | 0.00 | 0.01 | 0.01 | 63 | 1012.2 |
| 20260505221055 | 72 | 207 | 1.0 | 6.0 | 0.00 | 0.01 | 0.01 | 64 | 1012.1 |
| 20260505220557 | 72 | 221 | 1.0 | 5.0 | 0.00 | 0.01 | 0.01 | 63 | 1011.9 |
| 20260505220058 | 72 | 186 | 2.0 | 5.0 | 0.00 | 0.01 | 0.01 | 62 | 1012.1 |
| 20260505215557 | 72 | 217 | 1.0 | 5.0 | 0.00 | 0.01 | 0.01 | 62 | 1012.2 |
| 20260505215057 | 72 | 173 | 1.0 | 5.0 | 0.00 | 0.01 | 0.01 | 62 | 1012.2 |
| 20260505214554 | 72 | 184 | 2.0 | 6.0 | 0.00 | 0.01 | 0.01 | 61 | 1012.1 |
| 20260505214100 | 72 | 186 | 3.0 | 6.0 | 0.00 | 0.01 | 0.01 | 61 | 1012.0 |
| 20260505213558 | 72 | 223 | 3.0 | 6.0 | 0.00 | 0.01 | 0.01 | 61 | 1012.1 |
| 20260505213057 | 72 | 189 | 3.0 | 6.0 | 0.00 | 0.01 | 0.01 | 60 | 1012.1 |
| 20260505212559 | 72 | 188 | 2.0 | 6.0 | 0.00 | 0.01 | 0.01 | 60 | 1012.2 |
| 20260505212056 | 72 | 183 | 2.0 | 6.0 | 0.00 | 0.01 | 0.01 | 61 | 1012.3 |
| 20260505211554 | 72 | 199 | 2.0 | 5.0 | 0.00 | 0.01 | 0.01 | 62 | 1012.2 |
| 20260505211056 | 72 | 194 | 2.0 | 6.0 | 0.00 | 0.01 | 0.01 | 61 | 1012.2 |
| 20260505210557 | 73 | 230 | 2.0 | 6.0 | 0.00 | 0.01 | 0.01 | 61 | 1012.2 |
| 20260505210057 | 72 | 186 | 3.0 | 6.0 | 0.00 | 0.01 | 0.01 | 60 | 1012.2 |
| 20260505205556 | 72 | 201 | 1.0 | 6.0 | 0.00 | 0.01 | 0.01 | 61 | 1012.2 |
| 20260505205057 | 72 | 188 | 2.0 | 3.0 | 0.00 | 0.01 | 0.01 | 62 | 1012.1 |
| 20260505204602 | 71 | 184 | 1.0 | 3.0 | 0.00 | 0.01 | 0.01 | 62 | 1012.0 |
| 20260505204056 | 71 | 182 | 1.0 | 4.0 | 0.00 | 0.01 | 0.01 | 62 | 1012.1 |
| 20260505203556 | 71 | 202 | 1.0 | 4.0 | 0.00 | 0.01 | 0.01 | 62 | 1011.9 |
| 20260505203101 | 71 | 194 | 1.0 | 5.0 | 0.00 | 0.01 | 0.01 | 61 | 1011.9 |
| 20260505202557 | 71 | 188 | 2.0 | 5.0 | 0.00 | 0.01 | 0.01 | 60 | 1011.9 |
| 20260505202057 | 71 | 214 | 2.0 | 5.0 | 0.00 | 0.01 | 0.01 | 60 | 1012.0 |
| 20260505201557 | 71 | 180 | 1.0 | 4.0 | 0.00 | 0.01 | 0.01 | 60 | 1012.1 |
| 20260505201058 | 71 | 186 | 1.0 | 4.0 | 0.00 | 0.01 | 0.01 | 61 | 1012.1 |
| 20260505200557 | 71 | 162 | 0.0 | 4.0 | 0.00 | 0.01 | 0.01 | 61 | 1012.1 |
| 20260505200100 | 71 | 223 | 1.0 | 5.0 | 0.00 | 0.01 | 0.01 | 61 | 1012.1 |
| 20260505195558 | 71 | 186 | 1.0 | 5.0 | 0.00 | 0.01 | 0.01 | 60 | 1012.3 |
| 20260505195056 | 71 | 176 | 0.0 | 5.0 | 0.00 | 0.01 | 0.01 | 61 | 1012.3 |
| 20260505194618 | 71 | 216 | 1.0 | 3.0 | 0.00 | 0.01 | 0.01 | 60 | 1012.2 |
| 20260505194056 | 71 | 169 | 1.0 | 3.0 | 0.00 | 0.01 | 0.01 | 60 | 1012.1 |
| 20260505193557 | 71 | 0 | 1.0 | 3.0 | 0.00 | 0.01 | 0.01 | 60 | 1012.0 |
| 20260505193054 | 71 | 0 | 0.0 | 4.0 | 0.00 | 0.01 | 0.01 | 60 | 1012.1 |
| 20260505192556 | 71 | 190 | 1.0 | 5.0 | 0.00 | 0.01 | 0.01 | 58 | 1012.3 |
| 20260505192056 | 71 | 210 | 1.0 | 5.0 | 0.00 | 0.01 | 0.01 | 56 | 1012.4 |
| 20260505191606 | 71 | 155 | 0.0 | 4.0 | 0.00 | 0.01 | 0.01 | 55 | 1012.5 |
| 20260505191057 | 72 | 184 | 1.0 | 5.0 | 0.00 | 0.01 | 0.01 | 53 | 1012.9 |
| 20260505190556 | 72 | 193 | 2.0 | 5.0 | 0.01 | 0.01 | 0.01 | 55 | 1013.6 |
| 20260505190056 | 72 | 215 | 0.0 | 4.0 | 0.01 | 0.01 | 0.01 | 58 | 1013.7 |
| 20260505185556 | 72 | 215 | 1.0 | 4.0 | 0.01 | 0.01 | 0.01 | 56 | 1013.9 |
| 20260505185057 | 72 | 201 | 2.0 | 4.0 | 0.01 | 0.01 | 0.01 | 54 | 1014.0 |
| 20260505184558 | 73 | 221 | 2.0 | 4.0 | 0.01 | 0.01 | 0.01 | 52 | 1014.0 |
| 20260505184057 | 73 | 228 | 1.0 | 4.0 | 0.01 | 0.01 | 0.01 | 53 | 1013.9 |
| 20260505183556 | 73 | 200 | 1.0 | 4.0 | 0.01 | 0.01 | 0.01 | 49 | 1014.0 |
| 20260505183057 | 74 | 207 | 2.0 | 4.0 | 0.01 | 0.01 | 0.01 | 50 | 1014.0 |
| 20260505182557 | 74 | 227 | 1.0 | 6.0 | 0.01 | 0.01 | 0.01 | 53 | 1013.9 |
| 20260505182100 | 74 | 200 | 2.0 | 6.0 | 0.01 | 0.01 | 0.01 | 51 | 1013.9 |
| 20260505181558 | 74 | 191 | 2.0 | 6.0 | 0.01 | 0.01 | 0.01 | 48 | 1014.0 |
| 20260505181058 | 73 | 196 | 2.0 | 6.0 | 0.01 | 0.01 | 0.01 | 47 | 1014.1 |
| 20260505180556 | 74 | 238 | 2.0 | 5.0 | 0.00 | 0.00 | 0.00 | 48 | 1014.2 |
| 20260505180058 | 74 | 0 | 2.0 | 5.0 | 0.00 | 0.00 | 0.00 | 52 | 1014.1 |
| 20260505175556 | 74 | 220 | 2.0 | 6.0 | 0.00 | 0.00 | 0.00 | 51 | 1014.1 |
| 20260505175056 | 74 | 176 | 3.0 | 6.0 | 0.00 | 0.00 | 0.00 | 50 | 1014.0 |
| 20260505174555 | 74 | 157 | 2.0 | 5.0 | 0.00 | 0.00 | 0.00 | 48 | 1014.0 |
| 20260505174057 | 74 | 221 | 2.0 | 5.0 | 0.00 | 0.00 | 0.00 | 51 | 1014.0 |
| 20260505173557 | 74 | 202 | 1.0 | 5.0 | 0.00 | 0.00 | 0.00 | 52 | 1014.0 |
| 20260505173113 | 73 | 0 | 1.0 | 5.0 | 0.00 | 0.00 | 0.00 | 50 | 1014.1 |
| 20260505172555 | 73 | 227 | 3.0 | 5.0 | 0.00 | 0.00 | 0.00 | 48 | 1014.2 |
| 20260505172056 | 73 | 209 | 2.0 | 5.0 | 0.00 | 0.00 | 0.00 | 53 | 1014.2 |
| 20260505171622 | 73 | 214 | 3.0 | 5.0 | 0.00 | 0.00 | 0.00 | 49 | 1014.3 |
| 20260505171059 | 73 | 180 | 2.0 | 5.0 | 0.00 | 0.00 | 0.00 | 52 | 1014.4 |
| 20260505170557 | 73 | 261 | 3.0 | 5.0 | 0.00 | 0.00 | 0.00 | 49 | 1014.4 |
| 20260505170055 | 72 | 218 | 3.0 | 5.0 | 0.00 | 0.00 | 0.00 | 55 | 1014.5 |
| 20260505165557 | 72 | 255 | 1.0 | 5.0 | 0.00 | 0.00 | 0.00 | 56 | 1014.6 |
| 20260505165056 | 72 | 192 | 1.0 | 6.0 | 0.00 | 0.00 | 0.00 | 57 | 1014.6 |
| 20260505164601 | 72 | 220 | 2.0 | 6.0 | 0.00 | 0.00 | 0.00 | 58 | 1014.6 |
| 20260505164056 | 73 | 226 | 2.0 | 5.0 | 0.00 | 0.00 | 0.00 | 55 | 1014.7 |
| 20260505163556 | 73 | 184 | 1.0 | 3.0 | 0.00 | 0.00 | 0.00 | 59 | 1014.5 |
| 20260505163057 | 72 | 222 | 1.0 | 4.0 | 0.00 | 0.00 | 0.00 | 60 | 1014.5 |
| 20260505162556 | 72 | 185 | 1.0 | 5.0 | 0.00 | 0.00 | 0.00 | 63 | 1014.6 |
| 20260505162057 | 72 | 202 | 1.0 | 5.0 | 0.00 | 0.00 | 0.00 | 60 | 1014.6 |
| 20260505161605 | 71 | 146 | 2.0 | 5.0 | 0.00 | 0.00 | 0.00 | 61 | 1014.6 |
| 20260505161057 | 71 | 217 | 2.0 | 6.0 | 0.00 | 0.00 | 0.00 | 61 | 1014.5 |
| 20260505160558 | 71 | 212 | 1.0 | 6.0 | 0.00 | 0.00 | 0.00 | 62 | 1014.5 |
| 20260505153057 | 69 | 151 | 0.0 | 4.0 | 0.00 | 0.00 | 0.00 | 63 | 1014.4 |
| 20260505152557 | 69 | 146 | 1.0 | 4.0 | 0.00 | 0.00 | 0.00 | 61 | 1014.4 |
| 20260505152056 | 69 | 205 | 1.0 | 4.0 | 0.00 | 0.00 | 0.00 | 66 | 1014.3 |
| 20260505151559 | 69 | 176 | 1.0 | 4.0 | 0.00 | 0.00 | 0.00 | 64 | 1014.3 |
| 20260505151056 | 69 | 211 | 2.0 | 4.0 | 0.00 | 0.00 | 0.00 | 63 | 1014.4 |
| 20260505150556 | 69 | 0 | 1.0 | 3.0 | 0.00 | 0.00 | 0.00 | 67 | 1014.3 |
| 20260505150116 | 69 | 189 | 0.0 | 3.0 | 0.00 | 0.00 | 0.00 | 71 | 1014.3 |
| 20260505140556 | 64 | 109 | 1.0 | 4.0 | 0.00 | 0.00 | 0.00 | 74 | 1014.4 |
| 20260505130104 | 61 | 217 | 0.0 | 2.0 | 0.00 | 0.00 | 0.00 | 80 | 1014.6 |
| 20260505124558 | 59 | 0 | 0.0 | 1.0 | 0.00 | 0.00 | 0.00 | 84 | 1014.1 |
| 20260505124058 | 59 | 0 | 0.0 | 1.0 | 0.00 | 0.00 | 0.00 | 83 | 1014.1 |
| 20260505123558 | 59 | 0 | 0.0 | 1.0 | 0.00 | 0.00 | 0.00 | 84 | 1014.2 |
| 20260505123103 | 58 | 0 | 0.0 | 1.0 | 0.00 | 0.00 | 0.00 | 86 | 1014.2 |
| 20260505122556 | 57 | 0 | 0.0 | 1.0 | 0.00 | 0.00 | 0.00 | 89 | 1014.1 |
| 20260505122056 | 56 | 0 | 0.0 | 0.0 | 0.00 | 0.00 | 0.00 | 92 | 1014.1 |
| 20260505121622 | 55 | 0 | 0.0 | 0.0 | 0.00 | 0.00 | 0.00 | 94 | 1014.2 |
| 20260505121056 | 53 | 0 | 0.0 | 0.0 | 0.00 | 0.00 | 0.00 | 95 | 1014.1 |
| 20260505120555 | 53 | 0 | 0.0 | 0.0 | 0.00 | 0.00 | 0.00 | 95 | 1014.0 |
| 20260505115555 | 52 | 0 | 0.0 | 0.0 | 0.00 | 0.00 | 0.00 | 95 | 1014.2 |
| 20260505115055 | 52 | 0 | 0.0 | 0.0 | 0.00 | 0.00 | 0.00 | 94 | 1014.0 |
| 20260505114556 | 52 | 0 | 0.0 | 0.0 | 0.00 | 0.00 | 0.00 | 94 | 1013.8 |
| 20260505114055 | 52 | 0 | 0.0 | 0.0 | 0.00 | 0.00 | 0.00 | 95 | 1013.7 |
| 20260505113557 | 52 | 0 | 0.0 | 0.0 | 0.00 | 0.00 | 0.00 | 94 | 1013.5 |
| 20260505113059 | 52 | 0 | 0.0 | 0.0 | 0.00 | 0.00 | 0.00 | 95 | 1013.4 |
| 20260505112556 | 51 | 0 | 0.0 | 0.0 | 0.00 | 0.00 | 0.00 | 95 | 1013.4 |
| 20260505112056 | 51 | 0 | 0.0 | 0.0 | 0.00 | 0.00 | 0.00 | 94 | 1013.3 |
| 20260505111557 | 52 | 0 | 0.0 | 0.0 | 0.00 | 0.00 | 0.00 | 94 | 1013.3 |
| 20260505111100 | 52 | 0 | 0.0 | 0.0 | 0.00 | 0.00 | 0.00 | 94 | 1013.4 |
| 20260505110557 | 51 | 0 | 0.0 | 0.0 | 0.00 | 0.00 | 0.00 | 94 | 1013.3 |
| 20260505102055 | 53 | 0 | 0.0 | 0.0 | 0.00 | 0.00 | 0.00 | 92 | 1012.9 |
| 20260505101558 | 53 | 0 | 0.0 | 0.0 | 0.00 | 0.00 | 0.00 | 92 | 1012.8 |
| 20260505101054 | 53 | 0 | 0.0 | 0.0 | 0.00 | 0.00 | 0.00 | 91 | 1012.8 |
| 20260505100557 | 53 | 0 | 0.0 | 0.0 | 0.00 | 0.00 | 0.00 | 90 | 1012.7 |
| 20260505100135 | 54 | 0 | 0.0 | 0.0 | 0.00 | 0.00 | 0.00 | 89 | 1012.8 |
| 20260505095600 | 54 | 0 | 0.0 | 0.0 | 0.00 | 0.00 | 0.00 | 89 | 1012.7 |
| 20260505095056 | 54 | 0 | 0.0 | 0.0 | 0.00 | 0.00 | 0.00 | 89 | 1012.6 |
| 20260505094555 | 53 | 0 | 0.0 | 0.0 | 0.00 | 0.00 | 0.00 | 90 | 1012.5 |
| 20260505094056 | 53 | 0 | 0.0 | 0.0 | 0.00 | 0.00 | 0.00 | 91 | 1012.5 |
| 20260505093556 | 53 | 0 | 0.0 | 0.0 | 0.00 | 0.00 | 0.00 | 93 | 1012.6 |
| 20260505093056 | 52 | 0 | 0.0 | 0.0 | 0.00 | 0.00 | 0.00 | 93 | 1012.5 |
| 20260505092556 | 52 | 0 | 0.0 | 0.0 | 0.00 | 0.00 | 0.00 | 93 | 1012.4 |
| 20260505092055 | 52 | 0 | 0.0 | 0.0 | 0.00 | 0.00 | 0.00 | 93 | 1012.5 |
| 20260505091616 | 52 | 0 | 0.0 | 0.0 | 0.00 | 0.00 | 0.00 | 93 | 1012.6 |
| 20260505091055 | 52 | 0 | 0.0 | 0.0 | 0.00 | 0.00 | 0.00 | 93 | 1012.6 |
| 20260505090556 | 52 | 0 | 0.0 | 0.0 | 0.00 | 0.00 | 0.00 | 93 | 1012.7 |
| 20260505085553 | 52 | 0 | 0.0 | 0.0 | 0.00 | 0.00 | 0.00 | 93 | 1012.6 |
| 20260505085059 | 52 | 0 | 0.0 | 0.0 | 0.00 | 0.00 | 0.00 | 93 | 1012.5 |
| 20260505084555 | 52 | 0 | 0.0 | 0.0 | 0.00 | 0.00 | 0.00 | 93 | 1012.8 |
| 20260505084053 | 52 | 0 | 0.0 | 0.0 | 0.00 | 0.00 | 0.00 | 94 | 1012.7 |
| 20260505083559 | 52 | 0 | 0.0 | 0.0 | 0.00 | 0.00 | 0.00 | 94 | 1012.6 |
| 20260505083056 | 51 | 0 | 0.0 | 0.0 | 0.00 | 0.00 | 0.00 | 94 | 1012.6 |
| 20260505082555 | 51 | 0 | 0.0 | 0.0 | 0.00 | 0.00 | 0.00 | 94 | 1012.6 |
| 20260505082056 | 51 | 0 | 0.0 | 0.0 | 0.00 | 0.00 | 0.00 | 94 | 1012.7 |
| 20260505081555 | 51 | 0 | 0.0 | 0.0 | 0.00 | 0.00 | 0.00 | 94 | 1012.7 |
| 20260505081056 | 52 | 0 | 0.0 | 0.0 | 0.00 | 0.00 | 0.00 | 94 | 1012.7 |
| 20260505080558 | 52 | 0 | 0.0 | 0.0 | 0.00 | 0.00 | 0.00 | 94 | 1012.8 |
| 20260505080054 | 52 | 0 | 0.0 | 0.0 | 0.00 | 0.00 | 0.00 | 94 | 1012.8 |
| 20260505075556 | 52 | 0 | 0.0 | 0.0 | 0.00 | 0.00 | 0.00 | 94 | 1012.9 |
| 20260505075057 | 52 | 0 | 0.0 | 0.0 | 0.00 | 0.00 | 0.00 | 94 | 1013.0 |
| 20260505074557 | 52 | 0 | 0.0 | 0.0 | 0.00 | 0.00 | 0.00 | 93 | 1013.0 |